Location: Le Petit-Vavre
(46.5081°N, 1.5239°E)
Time: 15:14:53
(UTC+00:00)

SPOT 3 Rocket - Pass Details

Date: 03 March 2021
Orbit: 778 x 795 km, 98.7° (Epoch: 17 April)

Event Time Altitude Azimuth Distance (km) Brightness Sun altitude
Exits shadow 20:18:42 63° 19° (NNE) 887 3.7 -27.2°
Drops below altitude 10° 20:23:12 10° 349° (N) 2,374 6.4 -27.9°
Sets 20:25:33 0° 348° (NNW) 3,309 7.2 -28.3°
